Regional Weather Roundup
Issued by NWS Cleveland, OH

Home | Current Version | Previous Version | Text Only | Print | Product List | Glossary Off
Versions: 1 2 3 4 5 6 7 8 9 10 11 12 13 14 15 16 17 18 19 20 21 22 23 24 25 26 27 28 29 30 31 32 33 34 35 36 37 38 39 40 41 42 43 44 45 46 47 48 49 50

000
ASUS41 KCLE 261212
RWRCLE
OHIO REGIONAL WEATHER ROUNDUP
NATIONAL WEATHER SERVICE WILMINGTON, OH
800 AM EDT TUE JUL 26 2016

NOTE: "FAIR" INDICATES FEW OR NO CLOUDS BELOW 12,000 FEET WITH NO
SIGNIFICANT WEATHER AND/OR OBSTRUCTIONS TO VISIBILITY.

OHZ001>008-015>018-024>027-034-035-043-044-261300-
   NORTHWEST OHIO

CITY           SKY/WX    TMP DP  RH WIND       PRES   REMARKS
DEFIANCE       FAIR      70  63  78 N3        30.07R
FINDLAY        FAIR      71  63  75 CALM      30.06R
TOLEDO EXPRESS FAIR      68  64  87 N6        30.06R
TOLEDO EXEC    FAIR      71  65  81 N3        30.07R
LIMA           FAIR      69  66  90 N5        30.07R
$$

OHZ009>014-019>023-028>033-038-089-261300-
   NORTHEAST OHIO

CITY           SKY/WX    TMP DP  RH WIND       PRES   REMARKS
CLE-HOPKINS    PTSUNNY   76  63  64 NE10      30.07R
CLE-LAKEFRONT  FAIR      76  64  66 NE6       30.04S
CUY CO. ARPT   NOT AVBL
LORAIN-ELYRIA  FAIR      73  66  78 NE3       30.07R
ASHTABULA      FAIR      70  64  81 CALM      30.07R
AKRON-CANTON   PTSUNNY   72  65  78 NE10      30.06R
WOOSTER        FAIR      71  68  90 N3        30.07R
MANSFIELD      FAIR      71  67  87 N6        30.08R
YOUNGSTOWN     PTSUNNY   71  65  81 NE7       30.06R
$$

OHZ042-051>053-060>062-070>072-077>081-261300-
  SOUTHWEST OHIO

CITY           SKY/WX    TMP DP  RH WIND       PRES   REMARKS
CINC-COVINGTON CLOUDY    79  70  74 NE6       30.05R
CINC-LUNKEN    PTSUNNY   77  75  93 CALM      30.04S
HAMILTON       FAIR      77  68  73 CALM      30.05S
DAYTON         PTSUNNY   73  66  78 N5        30.07R
WRIGHT-PAT AFB FAIR      74  67  78 N5        30.05S
DAYTON GENERAL FAIR      75  66  73 NE5       30.05S
WILMINGTON     FAIR      75  69  81 N5        30.05S
$$

OHZ036-037-039>041-045>050-054>059-063>069-073>076-082>088-261300-
  CENTRAL AND SOUTHEAST OHIO

CITY           SKY/WX    TMP DP  RH WIND       PRES   REMARKS
COLUMBUS       PTSUNNY   75  68  78 N6        30.04R
OSU AIRPORT    FAIR      75  68  78 N7        30.05R
BOLTON FIELD   PTSUNNY   73  70  88 CALM      30.06S
RICKENBACK AFB FAIR      75  68  80 N5        30.04S
NEWARK         FAIR      75  70  84 CALM      30.05R
MARION         FAIR      71  66  84 N5        30.07R
LANCASTER      FAIR      74  72  93 CALM      30.05R
ZANESVILLE     FAIR      76  69  79 CALM      30.05R
NEW PHILLY     FAIR      74  67  78 CALM      30.05R
$$



USA.gov is the U.S. government's official web portal to all federal, state and local government web resources and services.